[[{"header":{"parameterUnit":"m.s-1","parameterCategory":1,"la1":30.2991,"la2":30.254,"lo1":-89.0895,"lo2":-89.0444,"dy":0.0017,"dx":0.0017,"nx":28,"ny":28,"refTime":"2023-08-31T03:00:00:Z","depth":0,"parameterNumber":2,"parameterNumberName":"U-component_of_WINDS"},"data":[0,0,0,0,0,0,0,0,0,0,0,0,0,0,0,0,0,0,0,0,0,0,0,0,0,0,0,0,0,0,0,0,0,0,0,0,0,0,0,0,0,0,0,0,0,0,0,0,0,0,0,0,0,0,0,0,0,0,-2.6812,-2.6812,0,-2.6767,-2.6767,-2.6766,-2.6747,-2.6747,-2.6747,-2.6747,-2.6701,-2.67,-2.6699,0,0,0,0,0,0,0,0,0,0,0,0,0,-2.6884,-2.6882,-2.6812,-2.6812,-2.6811,-2.6767,-2.6767,-2.6766,-2.6747,-2.6747,-2.6747,-2.6747,-2.6701,-2.67,-2.6698,0,0,0,0,0,0,0,0,0,0,0,0,0,-2.6847,-2.6882,-2.6813,-2.6796,-2.6795,-2.6767,-2.6767,-2.6766,-2.6747,-2.6747,-2.6747,-2.6747,-2.6702,-2.67,-2.6698,-2.6684,0,0,-2.6692,-2.6691,0,0,0,0,0,0,0,0,-2.6849,-2.6844,-2.6799,-2.6798,-2.6795,-2.6763,-2.6775,-2.6738,-2.6747,-2.6765,-2.6747,-2.6747,-2.6722,-2.6718,-2.6709,-2.6681,-2.668,-2.6692,-2.6691,-2.669,-2.6689,0,0,0,0,0,0,0,-2.6852,-2.6846,-2.6795,-2.6799,-2.6796,-2.6792,-2.6787,-2.6768,-2.6743,-2.6763,-2.6762,-2.6757,-2.672,-2.6711,-2.6708,-2.6679,-2.6692,-2.669,-2.6689,-2.6688,-2.6638,-2.6637,0,0,0,0,0,0,-2.6857,-2.6848,-2.6796,-2.6793,-2.6823,-2.6791,-2.6785,-2.6773,-2.6743,-2.6739,-2.6757,-2.6756,-2.6714,-2.671,-2.6706,-2.6687,-2.669,-2.6688,-2.6687,-2.6638,-2.6638,-2.6637,0,0,0,0,0,0,-2.6858,-2.6852,-2.6798,-2.682,-2.6813,-2.6789,-2.6776,-2.6772,-2.6763,-2.6738,-2.6734,-2.6752,-2.6714,-2.6709,-2.669,-2.6686,-2.6687,-2.6686,-2.6638,-2.6638,-2.6637,-2.665,0,0,0,0,0,0,-2.686,-2.6853,-2.6847,-2.682,-2.6812,-2.6781,-2.6776,-2.6771,-2.6759,-2.6758,-2.6732,-2.6728,-2.6714,-2.6693,-2.6688,-2.6683,-2.6684,-2.6638,-2.6638,-2.6638,-2.6649,-2.665,-2.665,0,0,0,0,0,-2.6863,-2.6852,-2.6847,-2.684,-2.6804,-2.6781,-2.6776,-2.676,-2.6759,-2.6753,-2.6737,-2.6729,-2.6687,-2.6691,-2.6685,-2.668,-2.6638,-2.6638,-2.6638,-2.6649,-2.665,-2.665,0,0,0,0,0,0,-2.6878,-2.6848,-2.6842,-2.6822,-2.6804,-2.6778,-2.677,-2.6761,-2.6744,-2.6743,-2.6724,-2.6719,-2.6701,-2.6688,-2.6693,-2.6664,-2.6662,-2.6661,-2.6673,-2.6673,-2.6673,-2.6677,-2.6682,0,0,0,0,0,-2.688,-2.6863,-2.6838,-2.6823,-2.6814,-2.6794,-2.6783,-2.6773,-2.6754,-2.6746,-2.6729,-2.6711,-2.6694,-2.6683,-2.6666,-2.6648,-2.6642,-2.6642,-2.6642,-2.6642,-2.6641,-2.6631,-2.663,-2.6636,-2.6636,-2.6636,0,0,-2.6881,-2.6863,-2.6854,-2.6825,-2.6811,-2.6795,-2.6787,-2.6771,-2.6759,-2.6744,-2.6724,-2.6711,-2.669,-2.6671,-2.6662,-2.666,-2.6638,-2.6642,-2.6642,-2.6641,-2.6631,-2.663,-2.663,-2.6636,-2.6636,-2.6636,0,0,-2.6877,-2.6861,-2.6847,-2.6832,-2.681,-2.6797,-2.6793,-2.6768,-2.6759,-2.6739,-2.6728,-2.6714,-2.6684,-2.667,-2.6659,-2.665,-2.6642,-2.6645,-2.6646,-2.6637,-2.6637,-2.6636,-2.6633,-2.6632,-2.6644,-2.6644,-2.6644,0,-2.6882,-2.6857,-2.6841,-2.6825,-2.6813,-2.6799,-2.6784,-2.6771,-2.6744,-2.6737,-2.6735,-2.6698,-2.6683,-2.6661,-2.6659,-2.6651,-2.6647,-2.6647,-2.6638,-2.6637,-2.6637,-2.6633,-2.6632,-2.6645,-2.6645,-2.6644,-2.6644,0,-2.6865,-2.6848,-2.6839,-2.6814,-2.6801,-2.6786,-2.6768,-2.6757,-2.6748,-2.6735,-2.6715,-2.6696,-2.6675,-2.667,-2.666,-2.6647,-2.6646,-2.6642,-2.6639,-2.6637,-2.6634,-2.6632,-2.6645,-2.6645,-2.6645,-2.6645,0,0,-2.6867,-2.6834,-2.6831,-2.6819,-2.6794,-2.6781,-2.6766,-2.6745,-2.6737,-2.6719,-2.6706,-2.6682,-2.6678,-2.6666,-2.6655,-2.6647,-2.6641,-2.6643,-2.6642,-2.6643,-2.6625,-2.6628,-2.6627,-2.6636,-2.6635,-2.6635,-2.6627,0,-2.6859,-2.6831,-2.6816,-2.6794,-2.6778,-2.6765,-2.6752,-2.6736,-2.6723,-2.6709,-2.6695,-2.6679,-2.6674,-2.6667,-2.6658,-2.6644,-2.6637,-2.6644,-2.6623,-2.6623,-2.6628,-2.6625,-2.6628,-2.6621,-2.6625,-2.6625,-2.6625,0,-2.6845,-2.6828,-2.6804,-2.6782,-2.6775,-2.6763,-2.6743,-2.673,-2.6711,-2.6703,-2.6689,-2.6679,-2.6663,-2.6662,-2.664,-2.6645,-2.6636,-2.6628,-2.6627,-2.6624,-2.6623,-2.6622,-2.6618,-2.6617,-2.6623,-2.6623,-2.6623,0,-2.6849,-2.682,-2.6802,-2.6793,-2.6766,-2.6758,-2.6747,-2.6728,-2.6717,-2.6701,-2.6693,-2.6675,-2.6665,-2.6651,-2.6636,-2.6637,-2.6616,-2.6614,-2.6609,-2.6609,-2.6604,-2.6604,-2.6599,-2.6599,-2.6599,-2.6599,-2.6599,0,-2.6841,-2.6827,-2.6804,-2.6793,-2.6777,-2.6761,-2.6746,-2.6734,-2.6717,-2.6704,-2.6692,-2.668,-2.6662,-2.6647,-2.6636,-2.662,-2.6615,-2.6608,-2.6605,-2.6609,-2.661,-2.6602,-2.6602,-2.6599,-2.6599,-2.6599,-2.6599,0,-2.6842,-2.6826,-2.6806,-2.6782,-2.6776,-2.6766,-2.6746,-2.6735,-2.6723,-2.6706,-2.6701,-2.6682,-2.6665,-2.6649,-2.6626,-2.6618,-2.6602,-2.6598,-2.6608,-2.6606,-2.6602,-2.6602,-2.659,-2.6588,-2.6591,-2.6591,-2.6591,0,-2.6838,-2.6827,-2.6802,-2.6792,-2.6781,-2.6765,-2.6754,-2.6738,-2.6727,-2.6706,-2.6698,-2.668,-2.6664,-2.6638,-2.6622,-2.6604,-2.66,-2.6597,-2.6597,-2.6602,-2.66,-2.66,-2.6599,-2.6597,-2.6597,-2.6597,-2.6597,0,-2.6831,-2.6824,-2.6808,-2.6789,-2.6776,-2.6761,-2.6746,-2.6738,-2.672,-2.6708,-2.669,-2.6679,-2.6656,-2.6638,-2.6619,-2.6608,-2.6599,-2.6598,-2.6595,-2.6599,-2.6605,-2.6601,-2.6608,-2.6598,-2.6598,-2.6598,-2.6598,-2.6598,-2.6829,-2.6819,-2.68,-2.6783,-2.677,-2.6756,-2.6744,-2.6731,-2.6716,-2.6696,-2.6688,-2.667,-2.6652,-2.6626,-2.6615,-2.6601,-2.6599,-2.6596,-2.6595,-2.6595,-2.6596,-2.6608,-2.6598,-2.6598,-2.6598,-2.6598,-2.6598,0,-2.6822,-2.6809,-2.6794,-2.6772,-2.6759,-2.6753,-2.6736,-2.6725,-2.6709,-2.6694,-2.6679,-2.6659,-2.6643,-2.6626,-2.6608,-2.6601,-2.6596,-2.6597,-2.6597,-2.6594,-2.6598,-2.6602,-2.66,-2.66,-2.66,-2.66,-2.66,-2.66,-2.6816,-2.6798,-2.6789,-2.6765,-2.6753,-2.6735,-2.6726,-2.6714,-2.6701,-2.6679,-2.6665,-2.6655,-2.6639,-2.662,-2.6605,-2.6601,-2.6594,-2.6596,-2.659,-2.6594,-2.6594,-2.6594,-2.6597,-2.6594,-2.6594,-2.6587,-2.6587,-2.6587]},{"header":{"parameterUnit":"m.s-1","parameterCategory":1,"la1":30.2991,"la2":30.254,"lo1":-89.0895,"lo2":-89.0444,"dy":0.0017,"dx":0.0017,"nx":28,"ny":28,"refTime":"2023-08-31T03:00:00:Z","depth":0,"parameterNumber":3,"parameterNumberName":"V-component_of_WINDS"},"data":[0,0,0,0,0,0,0,0,0,0,0,0,0,0,0,0,0,0,0,0,0,0,0,0,0,0,0,0,0,0,0,0,0,0,0,0,0,0,0,0,0,0,0,0,0,0,0,0,0,0,0,0,0,0,0,0,0,0,3.3692,3.3692,0,3.3647,3.3646,3.3646,3.3583,3.3582,3.3581,3.358,3.3532,3.3531,3.3531,0,0,0,0,0,0,0,0,0,0,0,0,0,3.3724,3.3724,3.3692,3.3692,3.3691,3.3647,3.3646,3.3645,3.3583,3.3582,3.3581,3.358,3.3532,3.3531,3.3531,0,0,0,0,0,0,0,0,0,0,0,0,0,3.3698,3.3724,3.3693,3.3655,3.3651,3.3647,3.3646,3.3645,3.3584,3.3582,3.3581,3.3579,3.3532,3.3531,3.3531,3.3559,0,0,3.3529,3.3529,0,0,0,0,0,0,0,0,3.3699,3.3697,3.3661,3.3658,3.3653,3.3619,3.3639,3.3616,3.3584,3.3609,3.358,3.3578,3.3562,3.3559,3.3554,3.3557,3.3555,3.3529,3.3529,3.3529,3.3529,0,0,0,0,0,0,0,3.3701,3.3698,3.3674,3.3661,3.3656,3.364,3.3634,3.3635,3.3595,3.3607,3.3602,3.3598,3.3559,3.3554,3.3552,3.3554,3.3529,3.3529,3.3529,3.3529,3.3577,3.3578,0,0,0,0,0,0,3.3709,3.37,3.3676,3.3673,3.3673,3.3641,3.3634,3.3632,3.3595,3.3588,3.3599,3.3595,3.3556,3.3553,3.355,3.3579,3.3529,3.3528,3.3528,3.3575,3.3577,3.3579,0,0,0,0,0,0,3.371,3.3707,3.3677,3.3685,3.368,3.3642,3.3639,3.3632,3.3626,3.3589,3.3581,3.3601,3.3554,3.3551,3.3557,3.3577,3.3528,3.3528,3.3573,3.3576,3.3578,3.3639,0,0,0,0,0,0,3.3711,3.3708,3.3719,3.3686,3.368,3.3686,3.364,3.3632,3.3626,3.362,3.3589,3.3582,3.3553,3.3558,3.3557,3.3575,3.3527,3.3571,3.3574,3.3577,3.3635,3.3644,3.3651,0,0,0,0,0,3.3712,3.3738,3.372,3.3717,3.3693,3.3687,3.3684,3.365,3.3628,3.3638,3.3614,3.3583,3.3575,3.3559,3.3557,3.3576,3.357,3.3573,3.3577,3.3632,3.3642,3.365,0,0,0,0,0,0,3.3774,3.3733,3.3712,3.3728,3.3712,3.3677,3.3689,3.3662,3.3652,3.3646,3.3605,3.3598,3.3609,3.3593,3.3576,3.3601,3.3568,3.3571,3.3611,3.362,3.3627,3.363,3.3527,0,0,0,0,0,3.3789,3.3789,3.3753,3.377,3.3763,3.3728,3.3724,3.37,3.3681,3.3673,3.365,3.3632,3.3625,3.3622,3.3614,3.3633,3.3625,3.3645,3.3653,3.3659,3.3662,3.3669,3.3678,3.359,3.359,3.359,0,0,3.3821,3.3799,3.3801,3.3782,3.3767,3.3766,3.3722,3.3724,3.3723,3.3673,3.3678,3.366,3.3637,3.365,3.3654,3.3637,3.3684,3.3663,3.3669,3.3668,3.3674,3.3682,3.369,3.3593,3.3592,3.3592,0,0,3.3878,3.3862,3.3874,3.386,3.3837,3.3813,3.3816,3.3785,3.3771,3.3775,3.3738,3.3736,3.3726,3.371,3.3702,3.3753,3.3724,3.3752,3.3791,3.3799,3.3806,3.3811,3.3828,3.3835,3.3755,3.3755,3.3755,0,3.3921,3.3919,3.3884,3.3888,3.388,3.3836,3.3847,3.3834,3.381,3.3805,3.3787,3.3772,3.3754,3.3762,3.3774,3.3769,3.377,3.3755,3.3808,3.3813,3.3818,3.3834,3.384,3.3759,3.3758,3.3758,3.3758,0,3.3972,3.3971,3.3984,3.3962,3.3955,3.3963,3.3928,3.3926,3.3902,3.388,3.3884,3.3861,3.3846,3.3847,3.3823,3.3851,3.3841,3.3816,3.3781,3.383,3.3844,3.385,3.3763,3.3762,3.3761,3.376,0,0,3.4066,3.4024,3.4029,3.4018,3.399,3.3988,3.3994,3.398,3.3979,3.3963,3.3966,3.3958,3.3934,3.3924,3.3899,3.3906,3.3946,3.3879,3.3878,3.3891,3.3974,3.3992,3.4,3.3928,3.3929,3.3929,3.3975,0,3.4117,3.4124,3.4092,3.4108,3.4106,3.4064,3.4068,3.4051,3.403,3.4025,3.4002,3.3997,3.3967,3.396,3.3965,3.3941,3.3962,3.3937,3.3928,3.3928,3.3934,3.4007,3.4027,3.4071,3.3981,3.3981,3.3982,0,3.4178,3.4166,3.4181,3.4151,3.4149,3.4154,3.4138,3.4135,3.4114,3.4098,3.4087,3.4057,3.4059,3.4028,3.4029,3.4012,3.4007,3.3994,3.3995,3.3992,3.3957,3.4005,3.4085,3.4091,3.3991,3.399,3.3989,0,3.4244,3.4231,3.4239,3.4231,3.4196,3.42,3.4186,3.4163,3.4157,3.4143,3.4138,3.4125,3.4118,3.4108,3.4075,3.4055,3.4079,3.4045,3.4065,3.4066,3.4071,3.4071,3.415,3.407,3.407,3.407,3.407,0,3.4303,3.4314,3.4268,3.4272,3.4282,3.4245,3.4256,3.4238,3.4218,3.4217,3.418,3.418,3.4137,3.4132,3.4106,3.411,3.4107,3.4094,3.4086,3.4096,3.4098,3.4091,3.4087,3.4072,3.4071,3.4071,3.4071,0,3.4378,3.4348,3.4353,3.432,3.4312,3.4321,3.4292,3.4294,3.4271,3.427,3.4268,3.4232,3.4223,3.419,3.4174,3.4156,3.4168,3.4155,3.4176,3.4171,3.4192,3.419,3.4269,3.4276,3.4193,3.4194,3.4194,0,3.4418,3.4425,3.4393,3.439,3.4378,3.4373,3.4367,3.433,3.4325,3.4301,3.4306,3.4295,3.4284,3.4272,3.4244,3.423,3.4216,3.4244,3.4214,3.4223,3.4215,3.4214,3.4214,3.4251,3.4252,3.4253,3.4253,0,3.4491,3.4476,3.4468,3.4455,3.4449,3.4436,3.4422,3.4421,3.4381,3.4376,3.4368,3.4359,3.4342,3.4331,3.4313,3.4297,3.4268,3.4263,3.4267,3.4277,3.4288,3.4281,3.4192,3.4262,3.4261,3.426,3.426,3.4259,3.4549,3.4553,3.4531,3.4523,3.4509,3.4496,3.4496,3.4473,3.4466,3.445,3.4428,3.4422,3.4399,3.4372,3.4358,3.4352,3.4336,3.4342,3.4343,3.4345,3.4349,3.429,3.4349,3.4348,3.4348,3.4348,3.4348,0,3.462,3.4603,3.4597,3.4578,3.4571,3.4546,3.4528,3.4524,3.4519,3.4501,3.4491,3.4481,3.4469,3.444,3.4426,3.4426,3.4412,3.4423,3.4422,3.4419,3.4365,3.4362,3.4435,3.4435,3.4435,3.4435,3.4435,3.4435,3.4655,3.4661,3.4643,3.464,3.4623,3.4617,3.4609,3.4596,3.4581,3.4572,3.4562,3.4544,3.452,3.4504,3.4492,3.4483,3.4479,3.4494,3.4481,3.4431,3.4423,3.4415,3.4412,3.4494,3.4494,3.4535,3.4536,3.4536]}]]